FW4060 Weather Reports


time (UTC)temp
F
wind
direction
speed
knots
gust
knots
rain 1hr
in
rain 24hr
in
rain mn
in
humidity
%
barometer
mb
20260505211004 51 268 2.6 12.2 0.06 0.39 0.39 78 1018.3
20260505210503 51 121 4.3 12.2 0.06 0.39 0.39 78 1018.4
20260505210006 52 161 2.6 9.6 0.06 0.39 0.39 81 1018.5
20260505205503 52 147 3.5 11.3 0.06 0.39 0.39 84 1018.5
20260505205002 51 249 2.6 10.4 0.06 0.39 0.39 88 1018.6
20260505204503 50 255 2.6 12.2 0.06 0.39 0.39 88 1018.6
20260505204005 49 172 2.6 12.2 0.06 0.39 0.39 88 1018.9
20260505203502 49 203 0.0 8.7 0.06 0.39 0.39 85 1018.9
20260505203008 49 187 2.6 8.7 0.04 0.37 0.37 85 1018.9
20260505202504 50 159 2.6 7.8 0.04 0.37 0.37 89 1018.8
20260505202004 48 278 2.6 8.7 0.04 0.37 0.37 80 1018.7
20260505201504 51 214 4.3 15.6 0.03 0.36 0.36 73 1018.8
20260505201004 52 247 2.6 15.6 0.00 0.33 0.33 71 1018.6
20260505200504 53 226 3.5 8.7 0.00 0.33 0.33 66 1018.5
20260505200004 54 152 4.3 12.2 0.00 0.33 0.33 65 1018.4
20260505195506 54 242 5.2 12.2 0.00 0.33 0.33 69 1018.5
20260505195002 54 162 2.6 9.6 0.00 0.33 0.33 71 1018.6
20260505194503 53 187 3.5 11.3 0.00 0.33 0.33 73 1018.9
20260505194004 53 278 3.5 13.9 0.01 0.33 0.33 80 1018.9
20260505193502 52 243 3.5 13.9 0.02 0.33 0.33 82 1019.0
20260505193002 51 166 3.5 8.7 0.04 0.33 0.33 86 1019.0
20260505192506 50 182 1.7 12.2 0.06 0.33 0.33 87 1019.1
20260505192004 50 293 0.9 7.8 0.07 0.33 0.33 90 1019.2
20260505191506 49 236 2.6 13.9 0.08 0.33 0.33 91 1019.4
20260505191005 49 228 4.3 13.9 0.08 0.33 0.33 93 1019.4
20260505190503 48 214 1.7 11.3 0.08 0.33 0.33 93 1019.4
20260505190005 47 252 3.5 7.8 0.09 0.33 0.33 94 1019.5
20260505185502 46 245 2.6 9.6 0.09 0.33 0.33 93 1019.6
20260505185002 46 299 4.3 11.3 0.09 0.33 0.33 93 1019.6
20260505184504 45 227 1.7 11.3 0.09 0.33 0.33 93 1019.5
20260505184003 45 288 1.7 7.8 0.08 0.32 0.32 93 1019.5
20260505183503 45 269 2.6 8.7 0.08 0.31 0.31 92 1019.5
20260505183008 45 199 3.5 8.7 0.06 0.28 0.28 92 1019.4
20260505182507 45 236 3.5 8.7 0.04 0.27 0.27 92 1019.6
20260505182003 45 317 3.5 9.6 0.03 0.26 0.26 92 1019.4
20260505181504 46 211 2.6 11.3 0.02 0.25 0.25 92 1019.3
20260505181003 46 270 6.1 11.3 0.02 0.25 0.25 92 1019.3
20260505180506 46 221 4.3 9.6 0.02 0.25 0.25 91 1019.2
20260505180005 46 214 3.5 13.0 0.01 0.24 0.24 91 1019.2
20260505175502 46 226 2.6 14.8 0.01 0.24 0.24 91 1019.3
20260505175003 46 235 4.3 9.6 0.01 0.24 0.24 91 1019.3
20260505174504 46 275 3.5 8.7 0.01 0.24 0.24 91 1019.2
20260505174004 46 251 3.5 10.4 0.01 0.24 0.24 91 1019.2
20260505173502 46 197 4.3 12.2 0.00 0.23 0.23 90 1019.2
20260505173011 46 218 5.2 12.2 0.00 0.23 0.23 90 1019.1
20260505172504 46 253 6.1 11.3 0.00 0.23 0.23 89 1019.2
20260505172003 47 263 4.3 10.4 0.00 0.23 0.23 88 1019.2
20260505171506 47 228 4.3 10.4 0.00 0.23 0.23 89 1018.9
20260505171004 48 270 4.3 10.4 0.00 0.23 0.23 89 1018.8
20260505170505 48 218 2.6 10.4 0.00 0.23 0.23 89 1018.8
20260505170007 48 217 3.5 8.7 0.00 0.23 0.23 89 1018.8
20260505165503 47 233 3.5 8.7 0.00 0.23 0.23 89 1018.8
20260505165003 47 198 3.5 8.7 0.00 0.23 0.23 89 1018.8
20260505164504 47 242 3.5 8.7 0.00 0.23 0.23 89 1018.8
20260505164006 47 191 2.6 7.0 0.00 0.23 0.23 90 1018.6
20260505163506 47 240 2.6 7.0 0.00 0.23 0.23 91 1018.7
20260505163004 47 229 1.7 7.8 0.00 0.23 0.23 91 1018.8
20260505162504 47 233 2.6 8.7 0.00 0.23 0.23 92 1018.7
20260505162003 46 210 2.6 9.6 0.00 0.23 0.23 93 1018.7
20260505161503 46 206 2.6 9.6 0.00 0.23 0.23 92 1019.0
20260505161009 46 247 0.0 7.8 0.00 0.23 0.23 93 1019.0
20260505160506 46 262 1.7 7.8 0.00 0.23 0.23 93 1019.0
20260505153004 45 288 1.7 6.1 0.00 0.23 0.23 93 1018.8
20260505152504 44 239 0.9 7.8 0.00 0.23 0.23 93 1018.8
20260505152010 44 250 1.7 7.8 0.00 0.23 0.23 93 1018.7
20260505151508 44 214 1.7 7.0 0.00 0.23 0.23 93 1018.6
20260505151008 44 203 0.9 7.0 0.00 0.23 0.23 93 1018.8
20260505150508 44 214 0.9 6.1 0.00 0.23 0.23 93 1018.8
20260505140505 43 196 2.6 6.1 0.04 0.23 0.23 93 1018.4
20260505125002 43 260 0.9 4.3 0.10 0.17 0.17 92 1018.0
20260505124503 43 260 0.0 6.1 0.11 0.17 0.17 92 1018.1
20260505124007 43 238 1.7 5.2 0.12 0.16 0.16 91 1018.1
20260505123504 43 262 0.9 5.2 0.12 0.16 0.16 91 1018.1
20260505123002 43 260 0.9 5.2 0.13 0.16 0.16 91 1018.1
20260505122503 43 241 1.7 7.0 0.14 0.16 0.16 91 1018.1
20260505122102 44 242 1.7 7.8 0.13 0.15 0.15 91 1018.0
20260505121503 44 209 3.5 8.7 0.11 0.12 0.12 91 1018.3
20260505121003 45 231 1.7 6.1 0.08 0.09 0.09 91 1018.3
20260505120502 45 199 1.7 4.3 0.07 0.08 0.08 91 1018.3
20260505120010 45 221 0.0 4.3 0.07 0.07 0.07 91 1018.2
20260505115505 45 240 1.7 4.3 0.07 0.07 0.07 91 1018.1
20260505115002 45 260 0.0 2.6 0.06 0.06 0.06 91 1017.9
20260505114602 45 208 0.0 3.5 0.06 0.06 0.06 90 1018.0
20260505114003 45 217 1.7 3.5 0.04 0.04 0.04 90 1018.1
20260505113503 45 181 0.0 7.0 0.03 0.03 0.03 90 1018.2
20260505113112 45 207 0.9 7.0 0.03 0.03 0.03 90 1018.2
20260505112502 45 189 0.0 7.8 0.02 0.02 0.02 89 1018.0
20260505112007 45 193 1.7 9.6 0.01 0.01 0.01 89 1018.2
20260505111603 46 276 1.7 10.4 0.01 0.01 0.01 89 1018.1
20260505111010 46 127 2.6 10.4 0.01 0.01 0.01 88 1018.2
20260505110503 46 264 0.9 7.8 0.01 0.01 0.01 88 1018.2
20260505102002 47 114 1.7 7.0 0.00 0.00 0.00 83 1018.2
20260505101503 47 264 1.7 8.7 0.00 0.00 0.00 83 1018.2
20260505101006 47 170 2.6 9.6 0.00 0.00 0.00 82 1018.3
20260505100503 47 218 3.5 7.8 0.00 0.00 0.00 81 1018.2
20260505100013 47 239 2.6 9.6 0.00 0.00 0.00 81 1018.1
20260505095500 47 204 3.5 10.4 0.00 0.00 0.00 81 1018.3
20260505095001 47 237 4.3 10.4 0.00 0.00 0.00 81 1018.3
20260505094500 47 12 4.3 11.3 0.00 0.00 0.00 82 1018.1
20260505094001 47 287 3.5 11.3 0.00 0.00 0.00 82 1018.1
20260505093502 47 265 4.3 10.4 0.00 0.00 0.00 82 1018.0
20260505093019 47 214 3.5 10.4 0.00 0.00 0.00 82 1018.2
20260505092503 47 270 2.6 13.9 0.00 0.00 0.00 82 1018.1
20260505092005 47 316 4.3 16.5 0.00 0.00 0.00 81 1018.1
20260505091502 47 190 4.3 16.5 0.00 0.00 0.00 81 1018.2
20260505091002 47 221 4.3 13.9 0.00 0.00 0.00 81 1018.0
20260505090502 47 118 4.3 9.6 0.00 0.00 0.00 80 1017.8
20260505090005 47 176 3.5 8.7 0.00 0.00 0.00 80 1017.7
20260505085503 47 82 2.6 10.4 0.00 0.00 0.00 79 1018.1
20260505085003 47 204 2.6 10.4 0.00 0.00 0.00 78 1018.3
20260505084503 47 239 3.5 12.2 0.00 0.00 0.00 78 1018.3
20260505084003 47 186 4.3 12.2 0.00 0.00 0.00 78 1018.5
20260505083506 47 152 2.6 7.8 0.00 0.00 0.00 77 1018.6
20260505083003 47 216 2.6 9.6 0.00 0.00 0.00 76 1018.8
20260505082502 47 147 3.5 9.6 0.00 0.00 0.00 76 1018.9
20260505082002 47 133 1.7 9.6 0.00 0.00 0.00 75 1019.0
20260505081505 47 198 2.6 13.9 0.00 0.00 0.00 75 1019.0
20260505081002 47 201 4.3 12.2 0.00 0.00 0.00 74 1018.9
20260505080502 47 187 3.5 12.2 0.00 0.00 0.00 74 1018.9
20260505080006 47 194 3.5 8.7 0.00 0.00 0.00 73 1019.0
20260505075502 48 183 2.6 7.8 0.00 0.00 0.00 73 1019.1
20260505075000 48 139 2.6 10.4 0.00 0.00 0.00 72 1019.0
20260505074505 48 228 3.5 10.4 0.00 0.00 0.00 72 1019.0
20260505074002 48 263 0.9 8.7 0.00 0.00 0.00 72 1019.1
20260505073502 48 174 3.5 13.0 0.00 0.00 0.00 72 1019.1
20260505073003 48 206 0.9 11.3 0.00 0.00 0.00 73 1019.0
20260505072504 48 208 3.5 13.9 0.00 0.00 0.00 72 1019.0
20260505072007 48 266 4.3 13.9 0.00 0.00 0.00 73 1019.0
20260505071502 48 188 2.6 8.7 0.00 0.00 0.00 73 1019.0
20260505071002 48 120 2.6 9.6 0.00 0.00 0.00 73 1018.9
20260505070504 48 154 2.6 9.6 0.00 0.00 0.00 73 1019.0
20260505070011 48 235 2.6 9.6 0.00 0.00 0.00 74 1019.0
20260505065504 48 150 3.5 9.6 0.00 0.00 0.00 73 1019.2
20260505065005 49 112 4.3 13.0 0.00 0.00 0.00 73 1019.4
20260505064504 49 261 2.6 9.6 0.00 0.00 0.00 73 1019.5
20260505064007 49 200 3.5 8.7 0.00 0.00 0.00 72 1019.5
20260505063504 49 157 3.5 8.7 0.00 0.00 0.00 72 1019.5
20260505063005 49 116 2.6 8.7 0.00 0.00 0.00 71 1019.6
20260505062510 49 195 3.5 9.6 0.00 0.00 0.00 70 1019.4
20260505062008 49 228 2.6 9.6 0.00 0.00 0.00 68 1019.4
20260505061508 49 193 2.6 9.6 0.00 0.00 0.00 68 1019.6
20260505061006 49 192 2.6 8.7 0.00 0.00 0.00 67 1019.5
20260505060504 50 196 1.7 7.8 0.00 0.00 0.00 66 1019.6
20260505060012 50 202 2.6 7.8 0.00 0.00 0.00 66 1019.5
20260505055506 50 207 1.7 7.8 0.00 0.00 0.00 66 1019.5
20260505055005 50 222 1.7 10.4 0.00 0.00 0.00 65 1019.5
20260505054505 50 213 3.5 9.6 0.00 0.00 0.00 65 1019.4
20260505054005 50 184 2.6 9.6 0.00 0.00 0.00 64 1019.4
20260505053504 50 183 2.6 8.7 0.00 0.00 0.00 63 1019.2
20260505053004 50 181 1.7 7.0 0.00 0.00 0.00 61 1018.9
20260505052504 50 224 2.6 7.0 0.00 0.00 0.00 61 1019.1
20260505052006 51 197 3.5 11.3 0.00 0.00 0.00 59 1019.3
20260505051514 51 233 4.3 11.3 0.00 0.00 0.00 58 1019.4
20260505051005 51 156 3.5 12.2 0.00 0.00 0.00 57 1019.2
20260505050506 51 206 5.2 12.2 0.00 0.00 0.00 57 1018.9
20260505041503 51 170 2.6 10.4 0.00 0.00 0.00 53 1019.3
20260505041007 51 244 3.5 13.0 0.00 0.00 0.00 52 1019.2
20260505040505 52 156 2.6 13.0 0.00 0.00 0.00 52 1019.0
20260505040010 52 222 5.2 17.4 0.00 0.00 0.00 52 1019.2
20260505035505 52 104 4.3 17.4 0.00 0.00 0.00 51 1019.2
20260505035004 52 199 3.5 13.0 0.00 0.00 0.00 51 1018.9
20260505034504 52 240 6.1 13.0 0.00 0.00 0.00 51 1018.7
20260505034004 52 148 4.3 17.4 0.00 0.00 0.00 50 1018.4
20260505033504 52 201 3.5 13.9 0.00 0.00 0.00 50 1018.3
20260505033005 52 195 1.7 11.3 0.00 0.00 0.00 50 1018.6
20260505032505 52 196 5.2 11.3 0.00 0.00 0.00 49 1018.7
20260505032004 52 168 3.5 12.2 0.00 0.00 0.00 49 1018.6
20260505031504 52 228 3.5 12.2 0.00 0.00 0.00 49 1018.6
20260505031004 52 185 3.5 12.2 0.00 0.00 0.00 48 1018.4
20260505030504 52 257 3.5 13.0 0.00 0.00 0.00 48 1018.3
20260505030006 53 170 4.3 13.0 0.00 0.00 0.00 48 1018.4
20260505025507 53 109 4.3 18.2 0.00 0.00 0.00 47 1018.2
20260505025006 53 224 4.3 18.2 0.00 0.00 0.00 46 1018.1
20260505024509 53 183 3.5 14.8 0.00 0.00 0.00 46 1018.1
20260505024004 53 111 4.3 16.5 0.00 0.00 0.00 46 1017.9
20260505023504 54 217 7.0 16.5 0.00 0.00 0.00 45 1018.2
20260505023004 54 139 6.1 13.9 0.00 0.00 0.00 44 1018.3
20260505022504 54 81 3.5 10.4 0.00 0.00 0.00 42 1018.5
20260505022005 54 251 3.5 16.5 0.00 0.00 0.00 42 1018.4
20260505021505 54 178 4.3 16.5 0.00 0.00 0.00 41 1018.4
20260505021004 54 227 6.1 14.8 0.00 0.00 0.00 41 1018.3
20260505020505 54 200 5.2 14.8 0.00 0.00 0.00 40 1018.2
20260505020008 55 117 3.5 11.3 0.00 0.00 0.00 40 1018.2
20260505015507 55 114 3.5 14.8 0.00 0.00 0.00 39 1018.2
20260505015004 55 241 4.3 14.8 0.00 0.00 0.00 39 1018.1
20260505014505 55 78 5.2 13.9 0.00 0.00 0.00 39 1018.1
20260505014007 55 251 4.3 13.9 0.00 0.00 0.00 40 1018.1
20260505013504 55 253 6.1 12.2 0.00 0.00 0.00 40 1018.1
20260505013004 55 222 6.1 11.3 0.00 0.00 0.00 41 1017.9
20260505012504 55 266 4.3 18.2 0.00 0.00 0.00 41 1018.0
20260505012006 56 141 5.2 18.2 0.00 0.00 0.00 41 1018.0
20260505011505 56 201 4.3 14.8 0.00 0.00 0.00 41 1018.0
20260505011004 56 191 4.3 11.3 0.00 0.00 0.00 40 1018.1
20260505010508 56 276 4.3 12.2 0.00 0.00 0.00 40 1017.9
20260505010006 56 212 5.2 13.9 0.00 0.00 0.00 40 1017.7
20260505005504 56 212 3.5 13.9 0.00 0.00 0.00 40 1017.7
20260505005004 56 207 3.5 12.2 0.00 0.00 0.00 39 1017.7
20260505004508 57 272 4.3 12.2 0.00 0.00 0.00 38 1017.7
20260505004005 57 216 4.3 13.9 0.00 0.00 0.00 37 1017.8
20260505003507 58 219 4.3 15.6 0.00 0.00 0.00 35 1018.0
20260505003014 58 89 4.3 15.6 0.00 0.00 0.00 34 1018.1
20260505002504 58 222 3.5 12.2 0.00 0.00 0.00 35 1018.3
20260505002004 59 120 4.3 11.3 0.00 0.00 0.00 34 1017.9
20260505001505 59 240 3.5 16.5 0.00 0.00 0.00 35 1018.1
20260505001004 59 207 5.2 16.5 0.00 0.00 0.00 34 1017.9
20260505000504 60 232 7.0 20.9 0.00 0.00 0.00 32 1017.6
20260505000006 60 245 5.2 20.9 0.00 0.00 0.00 32 1017.8
20260504235503 60 208 7.0 20.0 0.00 0.00 0.00 32 1017.6
20260504235005 60 97 7.8 20.0 0.00 0.00 0.00 31 1017.1
20260504234504 60 201 5.2 22.6 0.00 0.00 0.00 32 1017.2
20260504234003 61 147 7.0 22.6 0.00 0.00 0.00 31 1017.4
20260504233503 61 231 7.0 14.8 0.00 0.00 0.00 31 1017.6
20260504233003 61 218 7.8 16.5 0.00 0.00 0.00 31 1017.5
20260504232502 61 204 8.7 21.7 0.00 0.00 0.00 31 1017.1
20260504232002 62 120 7.0 16.5 0.00 0.00 0.00 30 1017.1
20260504231504 62 228 6.1 15.6 0.00 0.00 0.00 29 1017.4
20260504231005 62 201 4.3 15.6 0.00 0.00 0.00 30 1017.4
20260504230504 62 218 7.0 16.5 0.00 0.00 0.00 29 1017.4
20260504230005 63 241 6.1 21.7 0.00 0.00 0.00 28 1017.5
20260504225506 63 190 7.0 21.7 0.00 0.00 0.00 28 1017.6
20260504225003 63 183 6.1 20.0 0.00 0.00 0.00 28 1017.8
20260504224503 63 204 7.0 15.6 0.00 0.00 0.00 28 1017.8
20260504224003 64 174 7.0 17.4 0.00 0.00 0.00 27 1017.7
20260504223503 64 199 8.7 17.4 0.00 0.00 0.00 27 1017.6
20260504223003 65 113 6.1 14.8 0.00 0.00 0.00 27 1017.8
20260504222504 65 180 5.2 15.6 0.00 0.00 0.00 27 1017.7
20260504222003 65 249 5.2 21.7 0.00 0.00 0.00 26 1017.8
20260504221503 64 235 7.8 21.7 0.00 0.00 0.00 26 1017.7
20260504221004 65 199 4.3 13.9 0.00 0.00 0.00 27 1017.9
20260504220504 65 208 6.1 14.8 0.00 0.00 0.00 26 1018.0
20260504220005 65 197 6.1 14.8 0.00 0.00 0.00 26 1017.7
20260504215503 67 121 5.2 14.8 0.00 0.00 0.00 25 1017.7
20260504215007 67 206 5.2 13.0 0.00 0.00 0.00 25 1017.7
20260504214502 68 237 5.2 13.0 0.00 0.00 0.00 24 1017.8
20260504214003 68 212 3.5 13.0 0.00 0.00 0.00 23 1017.9
20260504213503 68 133 4.3 18.2 0.00 0.00 0.00 23 1018.0
20260504213004 67 199 6.1 18.2 0.00 0.00 0.00 25 1017.7
20260504212503 67 214 6.1 13.9 0.00 0.00 0.00 24 1017.9
20260504212004 67 18 5.2 13.9 0.00 0.00 0.00 24 1018.0
20260504211502 65 237 7.8 21.7 0.00 0.00 0.00 25 1017.8